Location: Pinon Hills
(34.4429°N, 117.6403°W)
Time: 17:47:43
(UTC-07:00)

Uosat F - Visible Passes

Search period start: 22 October 2017 00:00
Search period end: 01 November 2017 00:00
Orbit: 751 x 760 km, 98.8° (Epoch: 22 October)

Date Brightness Start Highest point End Pass type
(mag) Time Alt. Az. Time Alt. Az. Time Alt. Az.
22 Oct 11.5 18:44:14 10° SE 18:48:55 41° ENE 18:53:38 10° N visible
22 Oct 13.7 20:24:20 10° SW 20:27:47 19° W 20:31:16 10° NW visible
23 Oct 12.0 19:43:15 10° S 19:48:05 48° W 19:52:58 10° NNW visible
24 Oct 11.0 19:03:38 10° SSE 19:08:37 66° ENE 19:13:37 10° N visible
24 Oct 14.2 20:46:15 10° WSW 20:47:44 11° W 20:49:14 10° WNW visible
25 Oct 12.0 18:25:13 10° ESE 18:29:21 26° ENE 18:33:30 10° NNE visible
25 Oct 12.9 20:03:34 10° SSW 20:07:56 30° W 20:12:21 10° NW visible
26 Oct 11.2 19:23:19 10° S 19:28:21 79° WSW 19:33:25 10° NNW visible
27 Oct 11.5 18:44:17 10° SE 18:48:58 40° ENE 18:53:41 10° N visible
27 Oct 13.6 20:24:20 10° SW 20:27:50 19° W 20:31:22 10° NW visible
28 Oct 12.0 19:43:17 10° S 19:48:08 49° W 19:53:02 10° NNW visible
29 Oct 11.0 19:03:42 10° SSE 19:08:40 65° ENE 19:13:40 10° N visible
29 Oct 14.2 20:46:09 10° WSW 20:47:47 11° W 20:49:25 10° WNW visible
30 Oct 12.0 18:25:18 10° ESE 18:29:24 26° ENE 18:33:31 10° NNE visible
30 Oct 12.9 20:03:35 10° SSW 20:07:59 30° W 20:12:25 10° NW visible
31 Oct 11.1 19:23:22 10° S 19:28:24 80° WSW 19:33:29 10° NNW visible
